Overview Statistics Trail Chart Weather Telemetry Raw packets
 

This is the latest recevied weather packets stored in our database for station/object LU4EGV-13. If no packets are shown the sender has not sent any weather packets the latest 10 day(s).

<< 47 48 49 50 51 52 53 >>
Time Temp. Humidity Pressure Rain* Wind** Luminosity Snow
1787950989 20° C 44% 1008.9 hPa 0 mm - - -
1787950394 21.11° C 42% 1008.9 hPa 0 mm - - -
1787949783 21.11° C 41% 1008.7 hPa 0 mm - - -
1787949171 21.67° C 41% 1008.7 hPa 0 mm - - -
1787948565 21.67° C 40% 1008.4 hPa 0 mm - - -
1787947959 21.67° C 37% 1008.5 hPa 0 mm - - -
1787947353 21.67° C 38% 1008.3 hPa 0 mm - - -
1787946746 21.67° C 38% 1008.3 hPa 0 mm - - -
1787946141 21.67° C 38% 1008.2 hPa 0 mm - - -
1787945534 21.67° C 40% 1008.3 hPa 0 mm - - -
1787944927 21.67° C 40% 1008.2 hPa 0 mm - - -
1787944321 21.67° C 39% 1008.2 hPa 0 mm - - -
1787943716 21.67° C 36% 1008.2 hPa 0 mm - - -
1787943109 21.67° C 35% 1008.1 hPa 0 mm - - -
1787942503 21.67° C 35% 1008.3 hPa 0 mm - - -
1787941898 22.78° C 33% 1008.1 hPa 0 mm - - -
1787941292 23.33° C 33% 1008 hPa 0 mm - - -
1787941043 23.33° C 30% 1007.8 hPa 0 mm - - -
1787941026 22.78° C 31% 1008.1 hPa 0 mm - - -
1787940967 22.22° C 29% 1007.8 hPa 0 mm - - -
1787940896 23.33° C 32% 1007.7 hPa 0 mm - - -
1787940884 21.67° C 31% 1007.7 hPa 0 mm - - -
1787940877 21.67° C 32% 1007.6 hPa 0 mm - - -
1787940870 20.56° C 34% 1007.9 hPa 0 mm - - -
1787940866 22.78° C 30% 1007.8 hPa 0 mm - - -

* Rain latest hour (hover to see other rain measurements)
** Current wind speed in m/s (hover to see current wind gust speed)